Regional Weather Roundup
Issued by NWS Cleveland, OH

Home | Current Version | Previous Version | Text Only | Print | Product List | Glossary On
Versions: 1 2 3 4 5 6 7 8 9 10 11 12 13 14 15 16 17 18 19 20 21 22 23 24 25 26 27 28 29 30 31 32 33 34 35 36 37 38 39 40 41 42 43 44 45 46 47 48 49 50
000
ASUS41 KCLE 281612
RWRCLE
OHIO REGIONAL WEATHER ROUNDUP
NATIONAL WEATHER SERVICE WILMINGTON, OH
1200 PM EDT SAT MAY 28 2016

NOTE: "FAIR" INDICATES FEW OR NO CLOUDS BELOW 12,000 FEET WITH NO
SIGNIFICANT WEATHER AND/OR OBSTRUCTIONS TO VISIBILITY.

OHZ001>008-015>018-024>027-034-035-043-044-281700-
   NORTHWEST OHIO

CITY           SKY/WX    TMP DP  RH WIND       PRES   REMARKS
DEFIANCE       FAIR      84  63  49 S13       30.05S
FINDLAY        FAIR      85  61  44 SW13      30.07S
TOLEDO EXPRESS FAIR      84  63  49 SW8       30.05S
TOLEDO EXEC    FAIR      85  64  49 SW10      30.06S
LIMA           FAIR      83  65  54 SW13      30.09R
$$

OHZ009>014-019>023-028>033-038-089-281700-
   NORTHEAST OHIO

CITY           SKY/WX    TMP DP  RH WIND       PRES   REMARKS
CLE-HOPKINS    CLOUDY    80  66  62 S7        30.13R
CLE-LAKEFRONT  FAIR      81  67  62 SW10      30.09R
CUY CO. ARPT   CLOUDY    86  68  54 SW12      30.11R
LORAIN-ELYRIA  PTSUNNY   79  65  62 SW10      30.11R
ASHTABULA      FAIR      84  64  50 SW10      30.12S
AKRON-CANTON   FAIR      83  65  54 SW10      30.14R
WOOSTER        FAIR      82  66  58 W9        30.14S
MANSFIELD      PTSUNNY   80  66  62 SW12      30.14R
YOUNGSTOWN     FAIR      84  65  52 VRB7      30.14R
$$

OHZ042-051>053-060>062-070>072-077>081-281700-
  SOUTHWEST OHIO

CITY           SKY/WX    TMP DP  RH WIND       PRES   REMARKS
CINC-COVINGTON CLOUDY    76  67  73 SW7       30.13R
CINC-LUNKEN    LGT RAIN  71  69  93 S7        30.13R FOG
HAMILTON       PTSUNNY   80  68  66 VRB5      30.12R
DAYTON         PTSUNNY   79  66  64 S10       30.12S
WRIGHT-PAT AFB PTSUNNY   79  69  70 S10       30.11S
DAYTON GENERAL PTSUNNY   79  66  64 S8        30.12R
WILMINGTON     PTSUNNY   78  66  66 SW14      30.13R
$$

OHZ036-037-039>041-045>050-054>059-063>069-073>076-082>088-281700-
  CENTRAL AND SOUTHEAST OHIO

CITY           SKY/WX    TMP DP  RH WIND       PRES   REMARKS
COLUMBUS       PTSUNNY   81  64  56 VRB7G16   30.12S
OSU AIRPORT    FAIR      82  67  60 SW5       30.12S
BOLTON FIELD   MOSUNNY   82  66  57 SW9       30.13S
RICKENBACK AFB FAIR      82  66  57 SW9       30.12R
NEWARK         FAIR      85  64  49 W7        30.13R
MARION         PTSUNNY   82  67  60 SW13      30.12R
LANCASTER      CLOUDY    81  66  60 SW9       30.14R
ZANESVILLE     FAIR      84  66  54 W8        30.15R
NEW PHILLY     FAIR      83  64  52 SW8       30.14S
$$




USA.gov is the U.S. government's official web portal to all federal, state and local government web resources and services.